Theta_e
335 339 343 343 344 346 345 347 346 347 348 347 348 348 346 348 340 338 339 341 346 345 344 343 344 342 341 340 340 339 339 338 338
325 328 331 335 336 338 340 342 345 345 346 347 348 348 348 344 336 335 336 337 350 348 346 344 345 343 341 341 341 339 339 338 336
320 321 323 324 327 329 331 333 336 339 341 340 344 346 347 345 341 336 334 340 349 348 347 345 344 343 341 342 342 340 338 338 336
321 319 319 320 321 323 323 325 327 329 331 337 339 339 343 341 340 340 336 341 348 348 347 347 345 343 343 341 341 340 339 337 336
319 320 317 319 320 320 321 321 321 322 324 329 334 335 338 334 339 341 342 345 347 349 348 348 347 345 344 343 342 340 340 338 337
309 316 320 320 320 320 320 321 320 320 321 322 323 329 322 331 338 341 344 346 346 349 349 349 347 347 346 344 343 342 341 339 338
313 315 319 320 319 319 318 319 318 314 306 306 313 309 313 316 328 337 343 344 346 346 347 348 348 348 348 347 345 343 342 341 340
306 307 305 305 312 306 308 306 305 304 303 304 303 305 308 308 311 324 339 342 344 346 345 345 347 347 347 347 346 345 345 343 342
302 304 304 304 304 304 303 303 303 302 303 302 301 302 302 303 307 311 325 338 340 343 345 345 345 346 346 347 347 346 345 345 345
299 302 303 303 303 303 302 302 302 301 301 302 301 300 301 302 303 304 316 321 323 329 335 343 345 346 346 347 347 347 347 346 345
298 299 300 301 301 302 301 301 301 300 300 300 301 300 300 300 301 302 303 316 318 320 324 330 336 343 346 346 346 346 346 346 346
297 297 298 299 299 300 301 301 301 300 301 300 301 301 300 300 300 301 302 304 312 315 317 320 326 333 340 344 345 345 345 346 346
297 297 297 299 298 298 299 299 299 299 299 298 299 299 300 300 300 301 301 302 303 309 314 316 319 323 328 335 341 344 344 345 346
296 296 297 297 298 297 297 298 298 297 297 299 299 298 298 299 302 300 301 302 303 303 309 314 317 320 322 325 330 338 343 345 345
296 296 295 297 297 297 295 295 295 295 295 298 298 297 298 298 298 299 301 301 302 303 302 301 304 313 317 320 324 327 335 341 343
295 296 295 295 295 296 297 295 294 293 295 294 294 295 296 296 296 297 298 300 301 301 301 302 302 304 315 319 321 323 325 333 343
297 296 295 294 294 295 294 294 293 293 294 293 291 288 291 293 295 295 297 296 298 301 302 301 303 307 311 315 324 325 329 329 333
297 296 295 293 292 292 293 294 293 293 293 294 292 287 286 289 292 294 296 297 296 297 299 301 301 300 306 313 318 322 324 327 332
297 297 296 295 294 292 292 295 294 293 292 293 296 292 291 287 286 291 292 295 296 296 297 298 299 301 306 314 316 317 319 322 324
297 297 296 295 294 292 292 292 292 293 294 292 292 291 291 289 288 287 289 293 295 296 296 297 299 302 305 306 309 315 317 316 318
Wind_Speed
17 16 14 14 15 12 8 8 5 5 8 10 11 11 10 9 6 6 5 6 15 14 12 10 10 9 11 9 10 8 9 9 8
13 13 15 13 12 12 11 11 9 8 7 5 9 12 12 7 6 6 5 5 17 16 14 11 13 11 10 11 10 9 9 9 8
12 11 11 13 12 12 10 8 8 9 9 8 10 9 11 10 8 7 5 8 16 18 17 15 14 12 11 11 11 10 9 9 9
16 11 8 12 11 11 11 10 9 9 9 10 8 9 9 5 5 8 5 12 18 17 18 18 15 14 14 12 12 11 11 10 9
16 17 9 11 11 11 12 11 11 11 11 11 9 10 10 4 6 7 6 10 17 20 18 18 18 16 15 14 14 12 12 10 10
8 14 20 17 13 12 11 12 12 11 10 10 11 10 3 5 3 4 13 16 11 20 19 18 18 17 16 15 14 13 12 12 11
11 11 17 18 16 12 13 12 12 9 4 4 8 4 5 4 4 3 13 15 17 13 16 15 15 16 16 16 16 15 15 13 13
8 5 4 4 9 3 5 5 4 5 4 4 4 5 5 3 3 5 11 12 13 19 13 12 15 15 16 16 17 17 17 16 16
8 6 7 5 4 6 5 3 5 5 5 5 6 6 4 3 3 4 11 9 8 9 17 14 16 14 16 17 17 18 18 19 19
7 7 6 6 4 4 5 4 3 3 5 5 5 6 6 6 3 3 10 10 11 10 9 12 16 19 19 18 19 19 20 19 19
8 8 6 5 4 3 4 4 3 4 3 5 6 6 5 7 6 3 4 10 10 11 12 11 12 16 18 20 21 20 20 20 20
8 6 6 7 6 6 3 4 3 2 2 4 5 5 6 5 6 5 3 4 10 11 12 12 13 13 17 18 21 20 22 21 21
9 5 5 7 5 5 4 4 4 4 4 3 4 4 5 6 5 5 4 3 3 7 12 15 17 17 17 17 17 18 21 23 22
10 8 7 5 7 7 5 4 4 3 3 4 5 5 5 5 5 6 6 6 5 4 9 14 15 17 20 20 20 19 18 21 22
11 7 6 5 4 7 5 6 5 4 5 6 7 5 4 4 4 5 6 5 6 6 6 5 5 17 19 21 22 21 22 19 23
10 9 9 7 6 8 9 4 6 5 4 2 3 4 5 6 4 4 6 7 8 6 5 4 3 4 13 15 20 22 23 24 20
14 13 11 12 8 9 6 6 3 4 5 5 2 2 4 3 4 4 6 7 5 5 5 4 4 4 3 5 9 11 16 23 24
15 13 9 7 5 5 5 4 6 8 4 7 5 2 5 2 3 4 3 6 4 5 4 4 4 5 5 6 6 10 16 17 19
15 15 14 12 7 6 6 7 5 4 6 3 6 2 5 4 3 3 4 3 5 6 5 4 4 4 4 6 8 11 14 16 19
16 15 15 11 8 6 8 7 6 5 4 5 3 4 4 3 4 8 5 3 4 4 5 4 4 4 4 4 6 11 15 17 19
Wind_Direction
6 5 8 11 14 10 359 5 341 291 273 260 253 256 239 243 239 263 266 273 188 180 176 171 170 161 158 162 157 152 144 136 139
359 357 357 4 357 354 351 351 358 352 352 325 262 252 252 246 233 242 251 226 175 177 178 174 177 175 173 171 170 161 160 148 146
339 347 348 349 344 343 344 343 331 317 307 314 308 294 259 243 231 237 231 231 198 188 176 176 184 187 181 174 174 171 165 162 159
331 326 323 323 323 325 325 325 324 318 310 284 296 298 308 299 251 249 226 230 214 208 187 179 186 193 190 188 184 184 175 176 174
324 319 297 302 306 306 312 309 312 314 309 304 274 276 306 281 269 257 249 258 222 212 198 187 185 192 198 196 199 192 189 182 180
308 306 312 296 291 293 300 302 302 306 311 316 322 330 327 280 257 249 254 251 263 222 206 195 191 193 199 203 201 200 196 193 191
295 294 309 304 302 296 304 318 316 339 325 318 329 315 297 310 305 277 280 274 242 226 211 210 202 201 202 211 206 204 196 198 197
306 290 284 291 291 288 290 301 308 316 320 325 319 310 310 297 290 310 309 298 265 226 219 225 220 214 212 213 216 212 207 201 198
307 298 283 257 260 267 254 255 269 297 316 317 314 310 308 312 313 321 330 320 317 266 235 257 250 234 225 223 219 217 221 208 200
284 287 281 267 267 252 251 248 260 290 301 307 307 312 314 307 298 310 316 324 318 302 278 267 264 256 242 230 224 223 220 219 217
281 276 276 276 248 232 246 260 224 254 297 302 298 305 308 309 309 301 315 318 324 321 309 288 268 274 262 251 235 229 226 221 216
270 267 268 258 250 233 226 260 231 232 265 287 298 299 300 310 309 315 327 334 330 323 319 312 310 289 267 259 257 243 236 228 221
275 267 261 275 260 230 216 223 246 236 231 245 269 283 291 290 294 298 319 322 316 316 314 306 298 299 299 306 275 256 247 238 230
280 284 274 270 279 257 214 212 181 206 241 249 246 255 266 288 301 300 301 303 306 294 297 302 302 297 292 289 294 290 263 247 239
264 270 265 267 287 283 255 205 217 189 202 245 259 238 245 256 270 281 288 282 279 279 282 284 281 285 281 282 283 278 284 264 247
259 261 258 261 243 259 261 231 208 232 212 184 285 266 242 254 262 279 280 275 263 257 272 276 282 290 289 291 283 279 269 275 260
262 256 256 249 244 244 243 230 230 213 186 203 163 239 309 289 242 250 266 265 251 235 232 279 302 308 293 295 339 343 320 282 270
279 260 249 232 206 212 223 236 242 247 232 196 184 153 224 239 274 247 243 277 286 259 239 237 254 284 285 295 307 327 322 311 313
280 270 253 250 244 231 226 232 207 183 228 232 228 218 157 183 290 288 282 263 260 272 282 281 299 289 264 278 297 310 312 315 318
269 268 265 253 234 217 214 223 221 207 228 208 198 211 203 170 178 266 288 323 267 261 260 283 295 284 276 277 279 299 302 297 294